FW7659 Weather Reports


time (UTC)temp
F
wind
direction
speed
knots
gust
knots
rain 1hr
in
rain 24hr
in
rain mn
in
humidity
%
barometer
mb
20260504081903 53 72 0.0 0.0 0.00 0.00 0.00 57 1019.2
20260504081404 53 72 0.0 0.0 0.00 0.00 0.00 59 1019.2
20260504080903 53 72 0.0 0.0 0.00 0.00 0.00 59 1019.2
20260504080404 53 72 0.0 0.0 0.00 0.00 0.00 60 1019.2
20260504070403 53 81 0.0 0.0 0.00 0.00 0.00 60 1019.5
20260504050403 53 49 0.0 0.0 0.00 0.00 0.00 57 1020.2
20260504045904 53 61 0.0 0.9 0.00 0.00 0.00 58 1020.1
20260504045404 52 29 0.0 1.7 0.00 0.00 0.00 61 1020.1
20260504044904 52 51 0.0 0.0 0.00 0.00 0.00 62 1020.1
20260504044404 52 62 0.0 0.0 0.00 0.00 0.00 61 1020.1
20260504043903 52 66 0.0 0.0 0.00 0.00 0.00 62 1019.9
20260504043404 52 66 0.0 0.0 0.00 0.00 0.00 62 1019.9
20260504042903 52 66 0.0 0.0 0.00 0.00 0.00 62 1019.9
20260504041904 52 66 0.0 0.0 0.00 0.00 0.00 62 1020.1
20260504041403 53 66 0.0 0.0 0.00 0.00 0.00 60 1020.1
20260504040904 53 66 0.0 0.0 0.00 0.00 0.00 61 1020.1
20260504040403 52 66 0.0 0.0 0.00 0.00 0.00 63 1020.0
20260504035404 52 66 0.0 0.0 0.00 0.00 0.00 61 1020.0
20260504034904 53 66 0.0 0.0 0.00 0.00 0.00 61 1019.9
20260504034404 53 66 0.0 0.0 0.00 0.00 0.00 60 1019.9
20260504033904 53 66 0.0 0.0 0.00 0.00 0.00 60 1019.9
20260504033404 53 66 0.0 0.0 0.00 0.00 0.00 58 1019.9
20260504032403 54 66 0.0 0.0 0.00 0.00 0.00 57 1019.9
20260504031904 54 66 0.0 0.0 0.00 0.00 0.00 57 1019.9
20260504031404 54 66 0.0 0.0 0.00 0.00 0.00 56 1020.0
20260504030904 55 66 0.0 0.0 0.00 0.00 0.00 55 1020.1
20260504025904 55 66 0.0 0.0 0.00 0.00 0.00 54 1020.1
20260504024904 55 42 0.0 0.0 0.00 0.00 0.00 55 1019.9
20260504024404 55 38 0.0 0.0 0.00 0.00 0.00 55 1019.9
20260504023904 55 36 0.0 0.0 0.00 0.00 0.00 54 1019.9
20260504023404 55 36 0.0 0.0 0.00 0.00 0.00 54 1020.0
20260504022904 55 36 0.0 0.0 0.00 0.00 0.00 54 1019.9
20260504022404 55 36 0.0 0.0 0.00 0.00 0.00 54 1019.9
20260504021904 55 16 0.0 0.0 0.00 0.00 0.00 54 1019.7
20260504020904 55 16 0.0 0.0 0.00 0.00 0.00 55 1019.7
20260504020403 55 16 0.0 0.0 0.00 0.00 0.00 55 1019.6
20260504015904 55 16 0.0 0.0 0.00 0.00 0.00 55 1019.7
20260504014904 55 16 0.0 0.0 0.00 0.00 0.00 54 1019.6
20260504013404 55 16 0.0 0.0 0.00 0.00 0.00 54 1019.6
20260504012904 55 16 0.0 0.0 0.00 0.00 0.00 55 1019.5
20260504012404 54 16 0.0 0.0 0.00 0.00 0.00 56 1019.4
20260504011904 54 16 0.0 0.0 0.00 0.00 0.00 57 1019.3
20260504011404 54 16 0.0 0.0 0.00 0.00 0.00 57 1019.3
20260504010904 54 16 0.0 0.0 0.00 0.00 0.00 58 1019.2
20260504010403 54 16 0.0 0.0 0.00 0.00 0.00 57 1019.2
20260504005903 54 16 0.0 0.0 0.00 0.00 0.00 59 1019.2
20260504005403 55 16 0.0 0.0 0.00 0.00 0.00 55 1019.1
20260504004903 56 16 0.0 0.0 0.00 0.00 0.00 54 1019.1
20260504003903 55 15 0.0 0.0 0.00 0.00 0.00 56 1019.0
20260504003403 55 15 0.0 0.0 0.00 0.00 0.00 56 1019.0
20260504002904 55 16 0.0 0.0 0.00 0.00 0.00 56 1019.0
20260504002404 56 16 0.0 0.9 0.00 0.00 0.00 55 1019.0
20260504001904 56 22 0.0 0.0 0.00 0.00 0.00 58 1019.1
20260504001403 56 22 0.0 0.0 0.00 0.00 0.00 58 1019.0
20260504000405 57 22 0.0 0.0 0.00 0.00 0.00 54 1019.0
20260503235904 57 22 0.0 1.7 0.00 0.00 0.00 53 1019.0
20260503235404 56 10 0.0 1.7 0.00 0.00 0.00 56 1018.9
20260503234904 56 330 0.0 0.0 0.00 0.00 0.00 56 1018.9
20260503234403 57 330 0.0 0.0 0.00 0.00 0.00 55 1018.9
20260503233904 57 330 0.0 0.0 0.00 0.00 0.00 55 1018.9
20260503233403 57 330 0.0 1.7 0.00 0.00 0.00 54 1018.9
20260503232903 57 330 0.0 1.7 0.00 0.00 0.00 54 1018.9
20260503232404 57 349 0.0 1.7 0.00 0.00 0.00 54 1018.9
20260503231904 57 324 0.0 1.7 0.00 0.00 0.00 53 1018.9
20260503231404 57 337 0.0 1.7 0.00 0.00 0.00 53 1018.9
20260503230904 57 335 0.0 1.7 0.00 0.00 0.00 55 1018.9
20260503230404 58 334 0.0 1.7 0.00 0.00 0.00 56 1018.9
20260503225904 58 358 0.0 0.9 0.00 0.00 0.00 52 1018.9
20260503225403 59 234 0.0 0.0 0.00 0.00 0.00 48 1019.0
20260503224904 58 234 0.0 0.0 0.00 0.00 0.00 52 1019.0
20260503224403 58 296 0.0 0.0 0.00 0.00 0.00 52 1019.0
20260503223904 58 334 0.0 0.0 0.00 0.00 0.00 50 1019.0
20260503222904 59 265 0.0 0.0 0.00 0.00 0.00 50 1019.0
20260503222403 59 14 0.0 0.0 0.00 0.00 0.00 49 1019.1
20260503220904 59 2 0.0 0.9 0.00 0.00 0.00 48 1019.1
20260503220404 60 300 0.0 0.0 0.00 0.00 0.00 48 1019.1
20260503215904 60 321 0.0 0.0 0.00 0.00 0.00 51 1019.1
20260503215404 60 324 0.0 0.0 0.00 0.00 0.00 51 1019.1
20260503214904 60 322 0.0 0.0 0.00 0.00 0.00 51 1019.0
20260503213904 61 349 0.0 1.7 0.00 0.00 0.00 51 1019.0
20260503213404 61 26 0.0 0.0 0.00 0.00 0.00 52 1019.1
20260503212904 61 26 0.0 1.7 0.00 0.00 0.00 49 1019.0
20260503212404 61 285 0.0 1.7 0.00 0.00 0.00 50 1019.1
20260503211904 61 335 0.0 1.7 0.00 0.00 0.00 49 1019.2
20260503210904 61 306 0.0 1.7 0.00 0.00 0.00 48 1019.2
20260503210404 61 326 0.9 1.7 0.00 0.00 0.00 43 1019.3
20260503205904 61 338 0.0 1.7 0.00 0.00 0.00 47 1019.3
20260503205403 61 9 0.0 1.7 0.00 0.00 0.00 49 1019.4
20260503204903 62 265 0.0 1.7 0.00 0.00 0.00 47 1019.5
20260503203404 62 230 0.0 1.7 0.00 0.00 0.00 48 1019.7
20260503202904 62 316 0.0 0.9 0.00 0.00 0.00 47 1019.7
20260503201904 63 325 0.9 1.7 0.00 0.00 0.00 47 1019.9
20260503201403 63 30 0.0 0.9 0.00 0.00 0.00 46 1020.0
20260503200904 63 270 0.0 1.7 0.00 0.00 0.00 44 1020.0
20260503200404 63 325 0.0 0.9 0.00 0.00 0.00 47 1020.0
20260503195904 63 5 0.9 1.7 0.00 0.00 0.00 45 1020.1
20260503195404 64 353 0.9 2.6 0.00 0.00 0.00 45 1020.2
20260503194904 64 285 0.9 2.6 0.00 0.00 0.00 44 1020.4
20260503194403 65 303 0.0 1.7 0.00 0.00 0.00 49 1020.4
20260503193904 65 309 0.9 2.6 0.00 0.00 0.00 45 1020.6
20260503193404 65 324 0.9 1.7 0.00 0.00 0.00 45 1020.6
20260503192403 64 313 0.9 4.3 0.00 0.00 0.00 44 1020.7
20260503191404 66 307 0.9 1.7 0.00 0.00 0.00 44 1020.9
20260503190903 65 355 0.9 0.9 0.00 0.00 0.00 45 1020.9
20260503190403 66 302 0.9 2.6 0.00 0.00 0.00 48 1021.0
20260503185904 66 328 0.0 1.7 0.00 0.00 0.00 43 1021.0
20260503185404 66 322 0.9 2.6 0.00 0.00 0.00 44 1021.1
20260503184904 65 322 0.9 2.6 0.00 0.00 0.00 44 1021.1
20260503184404 66 220 0.9 1.7 0.00 0.00 0.00 47 1021.1
20260503183904 65 323 0.0 0.9 0.00 0.00 0.00 46 1021.2
20260503183404 65 347 0.9 1.7 0.00 0.00 0.00 49 1021.1
20260503182904 65 311 0.9 1.7 0.00 0.00 0.00 45 1021.1
20260503182404 65 343 0.9 1.7 0.00 0.00 0.00 44 1021.2
20260503181904 65 332 0.9 0.9 0.00 0.00 0.00 44 1021.2
20260503181403 65 315 0.9 1.7 0.00 0.00 0.00 45 1021.3
20260503180903 65 340 0.9 1.7 0.00 0.00 0.00 46 1021.3
20260503180404 65 336 0.9 1.7 0.00 0.00 0.00 44 1021.3
20260503175404 64 271 0.0 2.6 0.00 0.00 0.00 44 1021.3
20260503174903 65 254 0.0 1.7 0.00 0.00 0.00 47 1021.3
20260503173903 64 313 0.9 1.7 0.00 0.00 0.00 44 1021.4
20260503172904 63 337 0.9 1.7 0.00 0.00 0.00 46 1021.5
20260503172403 63 320 0.9 1.7 0.00 0.00 0.00 43 1021.5
20260503171904 63 288 0.0 0.9 0.00 0.00 0.00 47 1021.5
20260503171404 63 342 0.9 2.6 0.00 0.00 0.00 48 1021.6
20260503170903 63 290 0.0 0.9 0.00 0.00 0.00 46 1021.7
20260503170404 62 304 0.9 1.7 0.00 0.00 0.00 42 1021.7
20260503150903 58 4 0.9 1.7 0.00 0.00 0.00 52 1022.6
20260503150404 57 27 0.0 2.6 0.00 0.00 0.00 49 1022.6
20260503131403 52 325 0.9 5.2 0.00 0.00 0.00 63 1021.9
20260503130904 51 119 0.9 2.6 0.00 0.00 0.00 64 1021.9
20260503130404 51 320 0.9 2.6 0.00 0.00 0.00 65 1021.8
20260503110404 46 39 0.0 0.9 0.00 0.00 0.00 67 1021.0